Weather Roundup
Issued by NWS Springfield, MO

Home | Current Version | Previous Version | Text Only | Print | Product List | Glossary On
Versions: 1 2 3 4 5 6 7 8 9 10 11 12 13 14 15 16 17 18 19 20 21 22 23 24 25 26 27 28 29 30 31 32 33 34 35 36 37 38 39 40 41 42 43 44 45 46 47 48 49 50
833
NZUS99 KSGF 220307
HRRSGF

HOURLY WEATHER
NATIONAL WEATHER SERVICE SPRINGFIELD MO
1000 PM CDT MON AUG 21 2017

......SGF CWA......

CITY           SKY/WX    TMP DP  RH WIND       PRES   REMARKS
SPRINGFIELD    CLEAR     79  74  84 S9        30.03S
JOPLIN         CLEAR     83  76  79 S14       30.02R HX  91
WEST PLAINS    CLEAR     80  72  76 S8        30.08F
ROLLA          CLEAR     76  73  91 S7        30.03F
OSAGE BEACH    CLEAR     79  75  87 S6        30.00F
BRANSON        CLEAR     77  72  83 S6        30.08S

......SURROUNDING SGF CWA......

CITY           SKY/WX    TMP DP  RH WIND       PRES   REMARKS
CHANUTE        CLOUDY    82  74  76 S13       29.97R
PARSONS        CLEAR     82  74  76 S7        29.99R
COFFEYVILLE    CLEAR     82  75  79 S10       29.98R
EMPORIA        HVY RAIN  73  71  93 VRB6      29.95F FOG
GROVE OK       CLEAR     81  75  83 S5        30.04R
ROGERS AR      CLEAR     79  73  82 S8        30.09R
HARRISON AR    CLEAR     77  73  87 S7        30.09S
NEAR YELLVILLE CLEAR     81  70  69 CALM      30.04F

......KANSAS AND MISSOURI......

CITY           SKY/WX    TMP DP  RH WIND       PRES   REMARKS
KANSAS CTY INT TSTM      69  68  96 N7        30.01F FOG
DOWNTOWN KC    TSTM      70  70 100 N20G25    29.99R FOG
COLUMBIA       CLEAR     73  71  93 S6        29.98S
SEDALIA        CLOUDY    74  72  93 S7        29.98R
ST JOSEPH      TSTM      70  69  97 S8        29.99R
ST LOUIS       TSTM      83  73  72 S9        30.00F
SPIRIT OF STL  CLOUDY    80  75  84 CALM      29.98F
KIRKSVILLE     CLOUDY    73 N/A N/A CALM      29.97R
WICHITA        PTCLDY    77  74  90 S9        29.95R
TOPEKA         TSTM      72  72 100 N10       29.98R VSB 1
OLATHE         TSTM      72  71  97 N17       30.01R

......TENNESSEE......

CITY           SKY/WX    TMP DP  RH WIND       PRES   REMARKS
MEMPHIS        PTCLDY    83  75  77 S8        30.10S HX  90
NASHVILLE      PTCLDY    80  71  74 S3        30.14R

......ARKANSAS.......

CITY           SKY/WX    TMP DP  RH WIND       PRES   REMARKS
FAYETTEVILLE   CLEAR     76  75  97 S3        30.08R
FT SMITH       CLEAR     82  76  81 S5        30.05R
LITTLE ROCK    CLEAR     80  77  90 S7        30.08R

......OKLAHOMA.......

CITY           SKY/WX    TMP DP  RH WIND       PRES   REMARKS
TULSA          PTCLDY    85  75  72 S16G22    29.99R HX  93
PONCA CITY     CLEAR     85  70  60 S8        29.98R
MCALESTER      CLEAR     82  74  76 S5        30.06R
OKLAHOMA CITY  PTCLDY    79  70  74 S8        30.03R

......IOWA............

CITY           SKY/WX    TMP DP  RH WIND       PRES   REMARKS
DES MOINES     LGT RAIN  67  65  93 NW9       29.98R
QUAD CITIES    CLOUDY    75  71  87 S8        29.94F

......ILLINOIS........

CITY           SKY/WX    TMP DP  RH WIND       PRES   REMARKS
QUINCY         CLOUDY    72  68  87 E3        29.94S
CHICAGO        CLOUDY    77  67  71 SW8       29.93F




USA.gov is the U.S. government's official web portal to all federal, state and local government web resources and services.